Погода в Милоградовом

Россия / Приморский край     43°18′23″N   134°36′12″E
темп.,
°C
ветер,
м/с
пор.,
м/с
влажн.,
%
обл.,
%
осадки,
мм/ч
давл.,
гПа
погр.,
м
8 марта, пн
пн801:00−7зсз33800 0.0 102676
04:00−7сз33800 0.0 102674
07:00−8сз34790 0.0 102788
10:00−4зсз35620 0.0 1028368
13:00+1з26440 0.0 10281015
16:00+2зюз47460 0.0 1027999
19:00−1зюз23690 0.0 102737
22:00−3сз23700 0.0 102843
9 марта, вт
вт901:00−4сз33680 0.0 102654
04:00−4зсз236834 0.0 102551
07:00−4з34723 0.0 102385
10:000зюз35752 0.0 1021250
13:00+4юз812670 0.0 1018815
16:00+5юз814650 0.0 10151046
19:00+2з510740 0.0 1016451
22:00−1сз5165847 0.1 10191343
10 марта, ср
ср1001:00−3сз616610 0.0 10221275
04:00−4зсз415670 0.0 10241274
07:00−5з48650 0.0 1026562
10:00−2з38460 0.0 10271196
13:00+2з47410 0.0 10281063
16:00+2юз46448 0.0 1027922
19:00−1юз236544 0.0 102841
22:00−1сз236172 0.0 102843
11 марта, чт
чт1101:00−1зсз2257100 0.0 102763
04:00−2сз2353100 0.0 102663
07:00−3зсз235726 0.0 102565
10:00+1з235813 0.0 1025170
13:00+6юз24540 0.0 1025696
16:00+7з25552 0.0 1025977
19:00+2сз237169 0.0 102524
22:000ссз337745 0.0 102734
12 марта, пт
пт1201:000сз237490 0.0 102741
04:00−1сз336495 0.0 102748
07:00−2сз335227 0.0 102957
10:00+2сз234014 0.0 1030178
13:00+6ююв12330 0.0 1030540
16:00+3ююв22460 0.0 1029261
19:00−1юз01660 0.0 103021
22:00−1зсз11740 0.0 103121